Meteo orario Alife

Oggi, 27 Ottobre, Martedi

Tempo Temperatura Precipitazioni Vento Pressione Umidità
00:00 +16°C° 0.5 mm 3 m/s 737 mm Hg 91%
01:00 +15°C° 0 mm 4 m/s 737 mm Hg 92%
02:00 +15°C° 0.8 mm 4 m/s 736 mm Hg 92%
03:00 +16°C° 0.8 mm 3 m/s 736 mm Hg 93%
04:00 +14°C° 0.8 mm 3 m/s 736 mm Hg 93%
05:00 +15°C° 1.1 mm 2 m/s 736 mm Hg 93%
06:00 +15°C° 1.1 mm 2 m/s 736 mm Hg 94%
07:00 +15°C° 0 mm 1 m/s 736 mm Hg 94%
08:00 +16°C° 0.5 mm 2 m/s 736 mm Hg 90%
09:00 +16°C° 0.5 mm 2 m/s 737 mm Hg 85%
10:00 +16°C° 0.5 mm 2 m/s 737 mm Hg 81%
11:00 +16°C° 0 mm 2 m/s 737 mm Hg 77%
12:00 +17°C° 0 mm 2 m/s 737 mm Hg 73%
13:00 +16°C° 0 mm 2 m/s 737 mm Hg 71%
14:00 +16°C° 0 mm 2 m/s 737 mm Hg 72%
15:00 +16°C° 0 mm 2 m/s 737 mm Hg 74%
16:00 +16°C° 0 mm 2 m/s 737 mm Hg 76%
17:00 +15°C° 0 mm 2 m/s 737 mm Hg 80%
18:00 +14°C° 0 mm 1 m/s 738 mm Hg 83%
19:00 +13°C° 0 mm 1 m/s 738 mm Hg 87%
20:00 +13°C° 0.1 mm 1 m/s 738 mm Hg 87%
21:00 +13°C° 0.1 mm 1 m/s 738 mm Hg 87%
22:00 +13°C° 0.1 mm 1 m/s 739 mm Hg 87%
23:00 +13°C° 0 mm 1 m/s 739 mm Hg 87%

Domani, 28 Ottobre, Mercoledi

Tempo Temperatura Precipitazioni Vento Pressione Umidità
00:00 +13°C° 0 mm 1 m/s 739 mm Hg 87%
01:00 +13°C° 0 mm 1 m/s 739 mm Hg 87%
02:00 +13°C° 0 mm 1 m/s 739 mm Hg 85%
03:00 +13°C° 0 mm 1 m/s 739 mm Hg 84%
04:00 +13°C° 0 mm 1 m/s 739 mm Hg 83%
05:00 +13°C° 0 mm 1 m/s 739 mm Hg 83%
06:00 +13°C° 0 mm 1 m/s 739 mm Hg 82%
07:00 +12°C° 0 mm 1 m/s 739 mm Hg 82%
08:00 +14°C° 0 mm 1 m/s 740 mm Hg 75%
09:00 +16°C° 0 mm 1 m/s 740 mm Hg 69%
10:00 +18°C° 0 mm 1 m/s 741 mm Hg 63%
11:00 +19°C° 0 mm 1 m/s 741 mm Hg 60%
12:00 +20°C° 0 mm 1 m/s 741 mm Hg 57%
13:00 +21°C° 0 mm 1 m/s 741 mm Hg 55%
14:00 +20°C° 0 mm 1 m/s 741 mm Hg 58%
15:00 +20°C° 0 mm 1 m/s 741 mm Hg 61%
16:00 +20°C° 0 mm 1 m/s 741 mm Hg 64%
17:00 +18°C° 0 mm 1 m/s 742 mm Hg 68%
18:00 +16°C° 0 mm 1 m/s 742 mm Hg 73%
19:00 +14°C° 0 mm 0 m/s 742 mm Hg 78%
20:00 +13°C° 0 mm 0 m/s 743 mm Hg 79%
21:00 +14°C° 0 mm 1 m/s 743 mm Hg 80%
22:00 +13°C° 0 mm 1 m/s 743 mm Hg 82%
23:00 +12°C° 0 mm 0 m/s 743 mm Hg 82%

Dopodomani, 29 Ottobre, Giovedi

Tempo Temperatura Precipitazioni Vento Pressione Umidità
00:00 +12°C° 0 mm 0 m/s 743 mm Hg 82%
01:00 +12°C° 0 mm 0 m/s 743 mm Hg 82%
02:00 +12°C° 0 mm 0 m/s 743 mm Hg 82%
03:00 +11°C° 0 mm 0 m/s 743 mm Hg 83%
04:00 +11°C° 0 mm 0 m/s 743 mm Hg 83%
05:00 +11°C° 0 mm 0 m/s 743 mm Hg 83%
06:00 +11°C° 0 mm 0 m/s 743 mm Hg 83%
07:00 +11°C° 0 mm 0 m/s 744 mm Hg 83%
08:00 +14°C° 0 mm 1 m/s 744 mm Hg 76%
09:00 +16°C° 0 mm 1 m/s 744 mm Hg 69%
10:00 +19°C° 0 mm 1 m/s 745 mm Hg 61%
11:00 +18°C° 0 mm 2 m/s 745 mm Hg 58%
12:00 +18°C° 0 mm 2 m/s 744 mm Hg 54%
13:00 +19°C° 0 mm 2 m/s 744 mm Hg 51%
14:00 +18°C° 0 mm 2 m/s 744 mm Hg 55%
15:00 +18°C° 0 mm 2 m/s 744 mm Hg 60%
16:00 +18°C° 0 mm 1 m/s 744 mm Hg 64%
17:00 +16°C° 0 mm 1 m/s 745 mm Hg 69%
18:00 +15°C° 0 mm 1 m/s 745 mm Hg 73%
19:00 +14°C° 0 mm 1 m/s 745 mm Hg 77%
20:00 +14°C° 0 mm 1 m/s 745 mm Hg 78%
21:00 +13°C° 0 mm 1 m/s 746 mm Hg 79%
22:00 +13°C° 0 mm 1 m/s 746 mm Hg 80%
23:00 +13°C° 0 mm 1 m/s 746 mm Hg 80%

30 Ottobre, Venerdi

Tempo Temperatura Precipitazioni Vento Pressione Umidità
00:00 +13°C° 0 mm 1 m/s 746 mm Hg 81%
01:00 +13°C° 0 mm 1 m/s 745 mm Hg 81%
02:00 +13°C° 0 mm 1 m/s 745 mm Hg 82%
03:00 +13°C° 0 mm 1 m/s 745 mm Hg 82%
04:00 +13°C° 0 mm 1 m/s 746 mm Hg 82%
05:00 +13°C° 0 mm 1 m/s 746 mm Hg 82%
06:00 +13°C° 0 mm 1 m/s 746 mm Hg 81%
07:00 +13°C° 0 mm 1 m/s 746 mm Hg 80%
08:00 +14°C° 0 mm 1 m/s 746 mm Hg 74%
09:00 +16°C° 0 mm 1 m/s 746 mm Hg 67%
10:00 +19°C° 0 mm 1 m/s 747 mm Hg 61%
11:00 +20°C° 0 mm 1 m/s 747 mm Hg 58%
12:00 +20°C° 0 mm 1 m/s 746 mm Hg 55%
13:00 +21°C° 0 mm 1 m/s 746 mm Hg 52%
14:00 +21°C° 0 mm 1 m/s 746 mm Hg 55%
15:00 +20°C° 0 mm 1 m/s 746 mm Hg 58%
16:00 +20°C° 0 mm 1 m/s 746 mm Hg 61%
17:00 +18°C° 0 mm 1 m/s 746 mm Hg 66%
18:00 +16°C° 0 mm 1 m/s 746 mm Hg 71%
19:00 +14°C° 0 mm 1 m/s 746 mm Hg 76%
20:00 +14°C° 0 mm 1 m/s 746 mm Hg 78%
21:00 +14°C° 0 mm 1 m/s 746 mm Hg 80%
22:00 +13°C° 0 mm 1 m/s 747 mm Hg 81%
23:00 +13°C° 0 mm 1 m/s 746 mm Hg 80%

31 Ottobre, Sabato

Tempo Temperatura Precipitazioni Vento Pressione Umidità
00:00 +13°C° 0 mm 1 m/s 746 mm Hg 80%
01:00 +12°C° 0 mm 1 m/s 746 mm Hg 79%
02:00 +12°C° 0 mm 1 m/s 746 mm Hg 77%
03:00 +12°C° 0 mm 1 m/s 746 mm Hg 75%
04:00 +12°C° 0 mm 1 m/s 746 mm Hg 73%
05:00 +12°C° 0 mm 1 m/s 746 mm Hg 72%
06:00 +12°C° 0 mm 1 m/s 746 mm Hg 71%
07:00 +12°C° 0 mm 1 m/s 746 mm Hg 70%
08:00 +14°C° 0 mm 1 m/s 746 mm Hg 64%
09:00 +16°C° 0 mm 1 m/s 746 mm Hg 57%
10:00 +20°C° 0 mm 1 m/s 746 mm Hg 50%
11:00 +21°C° 0 mm 1 m/s 746 mm Hg 47%
12:00 +22°C° 0 mm 1 m/s 746 mm Hg 45%
13:00 +23°C° 0 mm 1 m/s 746 mm Hg 42%
14:00 +22°C° 0 mm 1 m/s 746 mm Hg 47%
15:00 +21°C° 0 mm 1 m/s 746 mm Hg 52%
16:00 +21°C° 0 mm 1 m/s 745 mm Hg 57%
17:00 +19°C° 0 mm 1 m/s 745 mm Hg 62%
18:00 +18°C° 0 mm 1 m/s 745 mm Hg 67%
19:00 +15°C° 0 mm 1 m/s 745 mm Hg 72%
20:00 +15°C° 0 mm 1 m/s 745 mm Hg 71%
21:00 +15°C° 0 mm 1 m/s 745 mm Hg 71%
22:00 +14°C° 0 mm 1 m/s 745 mm Hg 70%
23:00 +14°C° 0 mm 1 m/s 745 mm Hg 66%

1 Novenbre, Domenica

Tempo Temperatura Precipitazioni Vento Pressione Umidità
00:00 +14°C° 0 mm 1 m/s 745 mm Hg 63%
01:00 +14°C° 0 mm 1 m/s 745 mm Hg 59%
02:00 +14°C° 0 mm 1 m/s 745 mm Hg 59%
03:00 +14°C° 0 mm 1 m/s 745 mm Hg 58%
04:00 +14°C° 0 mm 1 m/s 745 mm Hg 57%
05:00 +14°C° 0 mm 1 m/s 745 mm Hg 59%
06:00 +13°C° 0 mm 2 m/s 745 mm Hg 61%
07:00 +13°C° 0 mm 2 m/s 745 mm Hg 63%
08:00 +16°C° 0 mm 1 m/s 745 mm Hg 59%
09:00 +19°C° 0 mm 1 m/s 746 mm Hg 54%
10:00 +21°C° 0 mm 1 m/s 746 mm Hg 50%
11:00 +22°C° 0 mm 1 m/s 746 mm Hg 48%
12:00 +23°C° 0 mm 1 m/s 746 mm Hg 46%
13:00 +23°C° 0 mm 1 m/s 746 mm Hg 44%
14:00 +23°C° 0 mm 1 m/s 745 mm Hg 48%
15:00 +22°C° 0 mm 1 m/s 745 mm Hg 52%
16:00 +21°C° 0 mm 1 m/s 745 mm Hg 56%
17:00 +20°C° 0 mm 1 m/s 745 mm Hg 61%
18:00 +18°C° 0 mm 1 m/s 745 mm Hg 65%
19:00 +16°C° 0 mm 1 m/s 745 mm Hg 69%
20:00 +15°C° 0 mm 1 m/s 745 mm Hg 71%
21:00 +15°C° 0 mm 1 m/s 746 mm Hg 72%
22:00 +14°C° 0 mm 1 m/s 746 mm Hg 73%
23:00 +14°C° 0 mm 1 m/s 746 mm Hg 74%
Mostrare altro

Abbiamo bisogno del tuo consenso

Meteoprog e i nostri fornitori di servizi possono memorizzare e accedere a dati personali come cookie, identificatori di dispositivi o altre tecnologie simili sul tuo dispositivo e possono elaborare tali dati per personalizzare i contenuti e gli annunci, nonché fornire funzionalità dei social media e analizzarne il traffico.

  • Archiviare e/o accedere alle informazioni sul tuo dispositivo

    Cookie, identificatori di dispositivi o altre informazioni possono essere memorizzati o resi accessibili sul tuo dispositivo per le finalità sopra indicate.

  • Annunci e contenuti personalizzati, misurazione di annunci e contenuti, approfondimenti sul pubblico e sviluppo di prodotti

    Gli annunci e i contenuti possono essere personalizzati in base a un profilo. È possibile aggiungere più dati per personalizzare meglio annunci e contenuti. È possibile misurare il rendimento degli annunci e dei contenuti. È possibile ricavare informazioni sul pubblico che ha visto gli annunci e i contenuti. Tali dati possono essere utilizzati per sviluppare o migliorare l'esperienza, i sistemi e il software dell'utente.

Cliccando su “Accetto”, acconsenti all'uso di cookie, identificatori di dispositivo, web beacon o altre tecnologie simili. Puoi modificare le impostazioni nel browser del tuo dispositivo.

Per determinati scopi, è possibile fare affidamento su interessi legali, piuttosto che sul consenso. Puoi approfondire questo argomento consultando la nostra Informativa sulla privacy e sui cookie.